Location: Spaichingen
(48.0400°N, 8.4300°E)
Time: 16:51:03
(UTC+01:00)

ISS - Pass Details

Date: 28 January 2019
Orbit: 403 x 411 km, 51.6° (Epoch: 20 February)

Event Time Altitude Azimuth Distance (km) Brightness Sun altitude
Rises 19:05:42 0° 263° (W) 2,331 1.8 -17.7°
Reaches altitude 10° 19:07:49 10° 269° (W) 1,473 0.3 -18.1°
Maximum altitude 19:11:03 53° 347° (NNW) 513 -3.4 -18.6°
Enters shadow 19:11:28 49° 17° (NNE) 541 -3.4 -18.7°
